CAPE
0 0 0 0 0 0 55 195 566 361 296 646 679 639 663 687 557 259 208 240 176 267
0 0 0 0 0 0 0 13 83 308 232 432 339 718 494 706 771 490 226 232 190 125
0 0 0 0 0 0 0 5 42 134 168 163 406 401 413 411 447 486 240 123 160 135
0 0 0 0 0 0 0 1 0 15 97 177 323 262 321 201 315 213 131 136 126 143
0 0 0 0 0 0 0 1 0 1 38 214 229 212 258 263 329 300 156 215 325 349
0 0 0 0 0 0 0 0 0 1 20 109 99 86 97 44 238 364 346 318 497 383
0 0 0 0 0 0 0 0 0 0 1 20 45 25 4 71 122 183 154 110 225 317
0 0 0 0 0 0 0 0 0 0 0 0 11 27 7 38 103 156 123 69 60 112
0 0 0 0 0 2 2 0 0 0 0 0 0 25 64 90 126 41 48 43 80 59
0 0 0 0 0 0 1 4 1 3 3 4 8 78 67 74 56 41 19 22 12 2
0 0 0 0 0 0 1 1 3 0 0 0 2 0 37 0 9 3 0 4 2 1
0 0 0 0 0 8 2 0 0 0 1 0 0 0 3 0 0 2 0 0 0 0
0 0 0 0 0 0 0 0 0 0 0 0 0 0 0 0 0 0 0 0 0 0
0 0 0 0 0 0 0 0 0 0 0 0 0 0 0 0 0 0 0 0 0 0
CIN
-0 -0 -0 -0 -0 -0 -0 -1 -3 -23 -58 -27 -18 -11 -1 -0 -2 -47 -58 -28 -34 -33
-0 -0 -0 -0 -0 -0 -0 -21 -14 -1 -23 -31 -38 -4 -10 -0 -0 -8 -52 -41 -31 -24
-0 -0 -0 -0 -0 -0 -0 -49 -36 -25 -37 -73 -44 -34 -17 -13 -9 -3 -31 -41 -26 -24
-0 -0 -0 -0 -0 -0 -0 -0 -0 -138 -102 -93 -53 -75 -33 -36 -18 -19 -34 -38 -43 -28
-0 -0 -0 -0 -0 -0 -0 -0 -0 -0 -137 -98 -110 -153 -59 -14 -26 -16 -22 -12 -9 -2
-0 -0 -0 -0 -0 -0 -0 -0 -0 -0 -69 -99 -116 -132 -110 -39 -4 -0 -0 -1 -0 -0
-0 -0 -0 -0 -0 -0 -0 -0 -0 -0 -77 -61 -61 -63 -27 -4 -24 -2 -0 -6 -0 -0
-0 -0 -0 -0 -0 -0 -0 -0 -0 -0 -0 -19 -63 -71 -27 -3 -5 -0 -0 -2 -3 -0
-0 -0 -0 -0 -0 -0 -0 -0 -0 -0 -0 -0 -3 -6 -9 -12 -31 -6 -9 -0 -0 -0
-0 -0 -0 -0 -0 -0 -0 -0 -0 -0 -0 -0 -0 -0 -0 -0 -9 -5 -1 -0 -2 -0
-0 -0 -0 -0 -0 -0 -0 -0 -0 -0 -0 -0 -0 -0 -0 -0 -0 -0 -0 -0 -0 -0
-0 -0 -0 -0 -0 -0 -0 -0 -0 -0 -0 -0 -0 -0 -0 -0 -0 -0 -0 -0 -0 -0
-0 -0 -0 -0 -0 -0 -0 -0 -0 -0 -0 -0 -0 -0 -0 -0 -0 -0 -0 -0 -0 -0
-0 -0 -0 -0 -0 -0 -0 -0 -0 -0 -0 -0 -0 -0 -0 -0 -0 -0 -0 -0 -0 -0
Wind_Speed
nan nan nan nan nan nan nan 47 53 57 58 57 58 59 60 61 60 59 59 57 57 58
nan nan nan nan nan nan nan nan nan 55 62 62 61 62 65 64 62 59 59 59 61 62
nan nan nan nan nan nan nan nan nan 64 65 69 68 68 62 61 68 65 62 61 63 66
nan nan nan nan nan nan nan nan nan nan nan 55 62 69 64 61 58 64 68 68 65 64
nan nan nan nan nan nan nan nan nan nan nan 55 55 59 61 65 62 64 63 64 64 65
nan nan nan nan nan nan nan nan nan nan nan 52 nan nan nan nan 53 57 57 59 59 60
nan nan nan nan nan nan nan nan nan nan nan nan nan nan nan nan 51 43 48 51 52 55
nan nan nan nan nan nan nan nan nan nan nan nan nan nan nan nan 39 40 37 nan nan 48
nan nan nan nan nan nan nan nan nan nan nan nan nan nan nan nan 31 nan nan nan nan nan
nan nan nan nan nan nan nan nan nan nan nan nan nan nan nan nan nan nan nan nan nan nan
nan nan nan nan nan nan nan nan nan nan nan nan nan nan nan nan nan nan nan nan nan nan
nan nan nan nan nan nan nan nan nan nan nan nan nan nan nan nan nan nan nan nan nan nan
nan nan nan nan nan nan nan nan nan nan nan nan nan nan nan nan nan nan nan nan nan nan
nan nan nan nan nan nan nan nan nan nan nan nan nan nan nan nan nan nan nan nan nan nan
Wind_Direction
nan nan nan nan nan nan nan 279 284 282 278 275 274 272 272 270 270 272 271 274 273 270
nan nan nan nan nan nan nan nan nan 278 281 278 273 269 268 266 267 268 269 269 269 267
nan nan nan nan nan nan nan nan nan 283 280 276 272 267 263 261 261 263 262 264 267 265
nan nan nan nan nan nan nan nan nan nan nan 277 275 272 266 256 255 255 258 259 264 266
nan nan nan nan nan nan nan nan nan nan nan 283 278 277 266 258 251 254 255 257 260 263
nan nan nan nan nan nan nan nan nan nan nan 282 nan nan nan nan 252 251 253 256 259 263
nan nan nan nan nan nan nan nan nan nan nan nan nan nan nan nan 258 248 253 254 258 261
nan nan nan nan nan nan nan nan nan nan nan nan nan nan nan nan 269 266 253 nan nan 255
nan nan nan nan nan nan nan nan nan nan nan nan nan nan nan nan 269 nan nan nan nan nan
nan nan nan nan nan nan nan nan nan nan nan nan nan nan nan nan nan nan nan nan nan nan
nan nan nan nan nan nan nan nan nan nan nan nan nan nan nan nan nan nan nan nan nan nan
nan nan nan nan nan nan nan nan nan nan nan nan nan nan nan nan nan nan nan nan nan nan
nan nan nan nan nan nan nan nan nan nan nan nan nan nan nan nan nan nan nan nan nan nan
nan nan nan nan nan nan nan nan nan nan nan nan nan nan nan nan nan nan nan nan nan nan